TimeCST,TemperatureF,Dew PointF,Humidity,Sea Level PressureIn,VisibilityMPH,Wind Direction,Wind SpeedMPH,Gust SpeedMPH,PrecipitationIn,Events,Conditions,WindDirDegrees,DateUTC
12:15 AM,48.2,35.6,62,30.14,10.0,Calm,Calm,-,N/A,,Clear,0,2012-11-06 06:15:00
12:35 AM,46.4,33.8,62,30.13,10.0,Calm,Calm,-,N/A,,Clear,0,2012-11-06 06:35:00
12:55 AM,44.6,35.6,71,30.13,10.0,Calm,Calm,-,N/A,,Clear,0,2012-11-06 06:55:00
1:15 AM,44.6,33.8,66,30.13,10.0,Calm,Calm,-,N/A,,Clear,0,2012-11-06 07:15:00
1:35 AM,42.8,33.8,70,30.12,10.0,Calm,Calm,-,N/A,,Clear,0,2012-11-06 07:35:00
1:55 AM,42.8,35.6,76,30.13,10.0,Calm,Calm,-,N/A,,Clear,0,2012-11-06 07:55:00
2:15 AM,42.8,33.8,70,30.13,10.0,Calm,Calm,-,N/A,,Clear,0,2012-11-06 08:15:00
2:35 AM,41.0,32.0,70,30.13,10.0,Calm,Calm,-,N/A,,Clear,0,2012-11-06 08:35:00
2:55 AM,44.6,35.6,71,30.14,10.0,Calm,Calm,-,N/A,,Clear,0,2012-11-06 08:55:00
3:15 AM,41.0,33.8,76,30.14,10.0,North,3.5,-,N/A,,Clear,10,2012-11-06 09:15:00
3:35 AM,41.0,32.0,70,30.13,10.0,Calm,Calm,-,N/A,,Clear,0,2012-11-06 09:35:00
3:55 AM,39.2,32.0,75,30.13,10.0,Calm,Calm,-,N/A,,Clear,0,2012-11-06 09:55:00
4:15 AM,41.0,33.8,76,30.13,10.0,NE,4.6,-,N/A,,Clear,40,2012-11-06 10:15:00
4:35 AM,42.8,33.8,70,30.13,10.0,Calm,Calm,-,N/A,,Clear,0,2012-11-06 10:35:00
4:55 AM,41.0,32.0,70,30.13,10.0,Calm,Calm,-,N/A,,Clear,0,2012-11-06 10:55:00
5:15 AM,42.8,33.8,70,30.14,10.0,Calm,Calm,-,N/A,,Clear,0,2012-11-06 11:15:00
5:35 AM,39.2,32.0,75,30.14,10.0,Calm,Calm,-,N/A,,Clear,0,2012-11-06 11:35:00
5:55 AM,39.2,32.0,75,30.14,10.0,Calm,Calm,-,N/A,,Clear,0,2012-11-06 11:55:00
6:15 AM,37.4,32.0,81,30.15,10.0,Calm,Calm,-,N/A,,Clear,0,2012-11-06 12:15:00
6:35 AM,37.4,32.0,81,30.16,10.0,Calm,Calm,-,N/A,,Clear,0,2012-11-06 12:35:00
6:55 AM,37.4,32.0,81,30.16,10.0,Calm,Calm,-,N/A,,Clear,0,2012-11-06 12:55:00
7:15 AM,39.2,33.8,81,30.18,9.0,Calm,Calm,-,N/A,,Clear,0,2012-11-06 13:15:00
7:35 AM,41.0,33.8,76,30.18,8.0,Calm,Calm,-,N/A,,Clear,0,2012-11-06 13:35:00
7:55 AM,44.6,35.6,71,30.19,6.0,Calm,Calm,-,N/A,,Haze,0,2012-11-06 13:55:00
8:15 AM,46.4,35.6,66,30.19,10.0,Calm,Calm,-,N/A,,Clear,0,2012-11-06 14:15:00
8:55 AM,53.6,37.4,54,30.20,10.0,South,4.6,-,N/A,,Clear,170,2012-11-06 14:55:00
9:15 AM,57.2,37.4,48,30.20,10.0,South,3.5,-,N/A,,Clear,180,2012-11-06 15:15:00
9:35 AM,59.0,35.6,42,30.20,10.0,SSW,6.9,-,N/A,,Clear,200,2012-11-06 15:35:00
9:55 AM,62.6,35.6,37,30.20,10.0,SSW,8.1,-,N/A,,Clear,210,2012-11-06 15:55:00
10:15 AM,62.6,35.6,37,30.20,10.0,SSW,6.9,-,N/A,,Clear,210,2012-11-06 16:15:00
10:35 AM,64.4,33.8,32,30.20,10.0,South,9.2,-,N/A,,Clear,190,2012-11-06 16:35:00
10:55 AM,66.2,35.6,32,30.20,10.0,South,10.4,-,N/A,,Clear,190,2012-11-06 16:55:00
11:15 AM,66.2,35.6,32,30.19,10.0,SW,4.6,-,N/A,,Clear,220,2012-11-06 17:15:00
11:35 AM,68.0,35.6,30,30.18,10.0,South,6.9,-,N/A,,Clear,190,2012-11-06 17:35:00
11:55 AM,69.8,37.4,31,30.17,10.0,South,8.1,-,N/A,,Clear,190,2012-11-06 17:55:00
12:15 PM,71.6,35.6,27,30.16,10.0,WSW,8.1,-,N/A,,Clear,240,2012-11-06 18:15:00
12:35 PM,71.6,35.6,27,30.15,10.0,SW,8.1,-,N/A,,Clear,220,2012-11-06 18:35:00
12:55 PM,73.4,35.6,25,30.14,10.0,WSW,11.5,-,N/A,,Clear,250,2012-11-06 18:55:00
1:15 PM,75.2,35.6,24,30.13,10.0,WSW,10.4,17.3,N/A,,Clear,240,2012-11-06 19:15:00
1:35 PM,75.2,35.6,24,30.12,10.0,West,11.5,-,N/A,,Clear,260,2012-11-06 19:35:00
1:55 PM,77.0,37.4,24,30.11,10.0,West,8.1,-,N/A,,Clear,260,2012-11-06 19:55:00
2:15 PM,77.0,35.6,22,30.10,10.0,West,8.1,18.4,N/A,,Clear,280,2012-11-06 20:15:00
2:35 PM,77.0,37.4,24,30.10,10.0,West,8.1,-,N/A,,Clear,260,2012-11-06 20:35:00
2:55 PM,77.0,35.6,22,30.10,10.0,WNW,5.8,-,N/A,,Clear,290,2012-11-06 20:55:00
3:15 PM,78.8,35.6,21,30.09,10.0,West,10.4,-,N/A,,Clear,270,2012-11-06 21:15:00
3:35 PM,78.8,35.6,21,30.09,10.0,West,8.1,-,N/A,,Clear,280,2012-11-06 21:35:00
3:55 PM,78.8,35.6,21,30.09,10.0,WNW,5.8,-,N/A,,Clear,300,2012-11-06 21:55:00
4:15 PM,78.8,35.6,21,30.09,10.0,NW,8.1,-,N/A,,Clear,310,2012-11-06 22:15:00
4:35 PM,77.0,37.4,24,30.09,10.0,WNW,8.1,-,N/A,,Clear,300,2012-11-06 22:35:00
4:55 PM,77.0,37.4,24,30.09,10.0,West,6.9,-,N/A,,Clear,270,2012-11-06 22:55:00
5:15 PM,75.2,37.4,25,30.09,10.0,West,3.5,-,N/A,,Clear,280,2012-11-06 23:15:00
5:35 PM,73.4,39.2,29,30.09,10.0,Calm,Calm,-,N/A,,Clear,0,2012-11-06 23:35:00
5:55 PM,68.0,39.2,35,30.10,10.0,Calm,Calm,-,N/A,,Clear,0,2012-11-06 23:55:00
6:15 PM,66.2,39.2,37,30.10,10.0,Calm,Calm,-,N/A,,Clear,0,2012-11-07 00:15:00
6:35 PM,62.6,39.2,42,30.11,10.0,Calm,Calm,-,N/A,,Clear,0,2012-11-07 00:35:00
6:55 PM,59.0,39.2,48,30.11,10.0,Calm,Calm,-,N/A,,Clear,0,2012-11-07 00:55:00
7:15 PM,59.0,39.2,48,30.12,10.0,Calm,Calm,-,N/A,,Clear,0,2012-11-07 01:15:00
7:35 PM,57.2,39.2,51,30.12,10.0,Calm,Calm,-,N/A,,Clear,0,2012-11-07 01:35:00
7:55 PM,55.4,37.4,51,30.13,10.0,Calm,Calm,-,N/A,,Clear,0,2012-11-07 01:55:00
8:15 PM,55.4,37.4,51,30.13,10.0,Calm,Calm,-,N/A,,Clear,0,2012-11-07 02:15:00
8:55 PM,55.4,39.2,54,30.14,10.0,Calm,Calm,-,N/A,,Clear,0,2012-11-07 02:55:00
9:15 PM,53.6,37.4,54,30.14,10.0,Calm,Calm,-,N/A,,Clear,0,2012-11-07 03:15:00
9:35 PM,51.8,37.4,58,30.14,10.0,Calm,Calm,-,N/A,,Clear,0,2012-11-07 03:35:00
9:55 PM,50.0,37.4,62,30.14,10.0,Calm,Calm,-,N/A,,Clear,0,2012-11-07 03:55:00
10:15 PM,48.2,35.6,62,30.14,10.0,Calm,Calm,-,N/A,,Clear,0,2012-11-07 04:15:00
10:35 PM,50.0,37.4,62,30.14,10.0,Calm,Calm,-,N/A,,Clear,0,2012-11-07 04:35:00
10:55 PM,46.4,35.6,66,30.14,10.0,Calm,Calm,-,N/A,,Clear,0,2012-11-07 04:55:00
11:15 PM,48.2,37.4,66,30.15,10.0,Calm,Calm,-,N/A,,Clear,0,2012-11-07 05:15:00
11:35 PM,46.4,35.6,66,30.16,10.0,Calm,Calm,-,N/A,,Clear,0,2012-11-07 05:35:00
11:55 PM,46.4,35.6,66,30.16,10.0,Calm,Calm,-,N/A,,Clear,0,2012-11-07 05:55:00